Weather History for Sioux Falls, SD

Change the Weather History Date:

Tuesday, May 28, 2013

  Actual Average Record
Temperature  
Mean Temperature 65 °F 62 °F  
Max Temperature 73 °F 73 °F 98 °F (1934)
Min Temperature 56 °F 50 °F 30 °F (1965)
Degree Days  
Heating Degree Days 0 5  
Month to date heating degree days 272 235  
Since 1 July heating degree days 7813 7642  
Cooling Degree Days 0 2  
Month to date cooling degree days 32 26  
Year to date cooling degree days 36 31  
Growing Degree Days 14 (Base 50)    
Moisture  
Dew Point 57 °F    
Average Humidity 83    
Maximum Humidity 100    
Minimum Humidity 66    
Precipitation  
Precipitation 0.06 in 0.12 in 2.83 in (1970)
Month to date precipitation 6.80 3.04  
Year to date precipitation 12.16 8.97  
Snow  
Snow 0.00 in 0.00 in T in (1947)
Month to date snowfall 1.5 0.4  
Since 1 July snowfall 43.3 44.9  
Snow Depth 0.00 in    
Sea Level Pressure  
Sea Level Pressure 29.72 in    
Wind  
Wind Speed 5 mph (NE)    
Max Wind Speed 17 mph    
Max Gust Speed 22 mph    
Visibility 7 miles    
Events Rain    
T = Trace of Precipitation, MM = Missing Value Source: NWS Daily Summary

Daily Weather History Graph

Daily Weather History Graph

Search for Another Location

Airport:

Trip Planner

Search our weather history database for the weather conditions in past years. The results will help you decide how hot, cold, wet, or windy it might be!

Date:

Astronomy

May. 28, 2013 Rise Set
Actual Time 5:50 AM CDT 8:58 PM CDT
Civil Twilight 5:16 AM CDT 9:33 PM CDT
Nautical Twilight 4:31 AM CDT 10:17 PM CDT
Astronomical Twilight 3:38 AM CDT 11:11 PM CDT
Moon No Moon Rise 9:43 AM CDT (5/28)
Length of Visible Light 16h 16m
Length of Day
15h 07m
Waning Gibbous, 82% of the Moon is Illuminated
May 28
Waning Gibbous
May 31
Last Quarter
Jun 8
New
Jun 16
First Quarter
Jun 23
Full

Hourly Weather History & Observations

Time (CDT) Temp. Dew Point Humidity Pressure Visibility Wind Dir Wind Speed Gust Speed Precip Events Conditions
12:13 AM 55.4 °F 55.4 °F 100% 29.75 in 7.0 mi ESE 9.2 mph - N/A   Overcast
12:56 AM 55.9 °F 55.9 °F 100% 29.73 in 4.0 mi East 10.4 mph - N/A   Overcast
1:56 AM 55.9 °F 55.9 °F 100% 29.74 in 7.0 mi ENE 5.8 mph - N/A   Overcast
2:56 AM 55.9 °F 55.9 °F 100% 29.76 in 3.0 mi Calm Calm - N/A   Overcast
3:18 AM 55.4 °F 55.4 °F 100% 29.76 in 2.0 mi NW 3.5 mph - N/A   Overcast
3:56 AM 55.9 °F 55.9 °F 100% 29.72 in 1.8 mi North 4.6 mph - N/A   Overcast
4:06 AM 55.4 °F 55.4 °F 100% 29.72 in 2.0 mi North 4.6 mph - N/A   Overcast
4:29 AM 55.4 °F 55.4 °F 100% 29.71 in 3.0 mi NE 3.5 mph - N/A   Overcast
4:47 AM 55.4 °F 55.4 °F 100% 29.69 in 2.5 mi North 8.1 mph - N/A   Overcast
4:56 AM 55.9 °F 55.9 °F 100% 29.72 in 2.5 mi Calm Calm - N/A   Overcast
5:04 AM 55.4 °F 55.4 °F 100% 29.71 in 3.0 mi NE 5.8 mph - N/A   Overcast
5:26 AM 55.4 °F 55.4 °F 100% 29.70 in 2.5 mi ENE 5.8 mph - N/A   Overcast
5:38 AM 55.4 °F 55.4 °F 100% 29.69 in 3.0 mi ENE 6.9 mph - N/A   Overcast
5:56 AM 55.9 °F 55.0 °F 97% 29.67 in 2.0 mi ENE 12.7 mph - 0.00 in   Light Drizzle
6:04 AM 55.4 °F 55.4 °F 100% 29.67 in 1.8 mi ENE 10.4 mph - 0.00 in   Light Drizzle
6:56 AM 55.9 °F 55.0 °F 97% 29.66 in 2.0 mi East 13.8 mph - 0.00 in   Overcast
7:24 AM 55.4 °F 55.4 °F 100% 29.66 in 4.0 mi East 15.0 mph - N/A   Overcast
7:56 AM 57.0 °F 55.0 °F 93% 29.67 in 5.0 mi East 8.1 mph - 0.00 in   Overcast
8:12 AM 57.2 °F 55.4 °F 94% 29.73 in 4.0 mi Calm Calm - 0.00 in Rain Light Rain
8:40 AM 57.2 °F 55.4 °F 94% 29.72 in 4.0 mi South 3.5 mph - 0.02 in Rain Light Rain
8:56 AM 57.0 °F 55.9 °F 96% 29.73 in 5.0 mi West 4.6 mph - 0.03 in Rain Light Rain
9:56 AM 59.0 °F 57.0 °F 93% 29.73 in 10.0 mi West 8.1 mph - 0.03 in   Overcast
10:18 AM 59.0 °F 57.2 °F 94% 29.73 in 10.0 mi WNW 9.2 mph - N/A   Overcast
10:52 AM 59.0 °F 57.2 °F 94% 29.74 in 10.0 mi West 4.6 mph - N/A   Overcast
10:56 AM 59.0 °F 55.9 °F 90% 29.74 in 10.0 mi West 4.6 mph - N/A   Overcast
11:02 AM 59.0 °F 55.4 °F 88% 29.74 in 10.0 mi WNW 4.6 mph - N/A   Overcast
11:52 AM 62.6 °F 57.2 °F 82% 29.74 in 10.0 mi WNW 6.9 mph - N/A   Overcast
11:56 AM 62.1 °F 57.0 °F 84% 29.74 in 10.0 mi WNW 6.9 mph - N/A   Overcast
12:14 PM 62.6 °F 55.4 °F 77% 29.74 in 10.0 mi NW 4.6 mph - N/A   Overcast
12:34 PM 62.6 °F 57.2 °F 82% 29.75 in 10.0 mi NNW 6.9 mph - N/A   Overcast
12:56 PM 63.0 °F 57.0 °F 81% 29.74 in 10.0 mi NNW 6.9 mph - N/A   Overcast
1:56 PM 66.0 °F 57.9 °F 75% 29.73 in 10.0 mi North 4.6 mph - N/A   Mostly Cloudy
2:39 PM 68.0 °F 59.0 °F 73% 29.72 in 10.0 mi NE 4.6 mph - N/A   Scattered Clouds
2:56 PM 66.0 °F 57.0 °F 73% 29.73 in 10.0 mi Calm Calm - N/A   Scattered Clouds
3:13 PM 66.2 °F 59.0 °F 78% 29.73 in 10.0 mi Calm Calm - N/A   Mostly Cloudy
3:56 PM 69.1 °F 59.0 °F 70% 29.73 in 10.0 mi Calm Calm - N/A   Mostly Cloudy
4:31 PM 69.8 °F 60.8 °F 73% 29.74 in 10.0 mi SSE 3.5 mph - N/A   Scattered Clouds
4:56 PM 70.0 °F 57.9 °F 65% 29.72 in 10.0 mi Calm Calm - N/A   Partly Cloudy
5:56 PM 72.0 °F 60.1 °F 66% 29.71 in 10.0 mi ESE 4.6 mph - N/A   Partly Cloudy
6:56 PM 70.0 °F 60.1 °F 71% 29.70 in 10.0 mi ESE 4.6 mph - N/A   Partly Cloudy
7:56 PM 68.0 °F 60.1 °F 76% 29.68 in 10.0 mi East 6.9 mph - N/A   Clear
8:56 PM 64.9 °F 59.0 °F 81% 29.70 in 10.0 mi East 5.8 mph - N/A   Clear
9:56 PM 64.0 °F 59.0 °F 84% 29.74 in 10.0 mi SSE 8.1 mph - N/A   Clear
10:56 PM 61.0 °F 57.9 °F 90% 29.75 in 10.0 mi SE 3.5 mph - N/A   Clear
11:56 PM 57.0 °F 55.0 °F 93% 29.75 in 10.0 mi East 3.5 mph - N/A   Clear